FW4468 Weather Reports


Display with metric or nautical units.
time (UTC)temp
F
wind
direction
speed
MPH
gust
MPH
rain 1hr
in
rain 24hr
in
rain mn
in
humidity
%
barometer
mb
20260504050151 65 160 0.0 2.0 0.00 0.00 0.00 34 1008.5
20260504044550 65 159 0.0 2.0 0.00 0.00 0.00 35 1008.6
20260504043056 66 161 0.0 2.0 0.00 0.00 0.00 34 1008.5
20260504041549 66 143 0.0 3.0 0.00 0.00 0.00 35 1008.5
20260504040111 67 128 0.0 3.0 0.00 0.00 0.00 34 1008.5
20260504034548 68 121 0.0 2.0 0.00 0.00 0.00 35 1008.4
20260504033049 69 120 0.0 2.0 0.00 0.00 0.00 33 1008.4
20260504031556 71 107 1.0 2.0 0.00 0.00 0.00 33 1008.4
20260504030046 72 257 0.0 2.0 0.00 0.00 0.00 29 1008.4
20260504024546 74 260 0.0 2.0 0.00 0.00 0.00 26 1008.5
20260504023044 74 83 0.0 3.0 0.00 0.00 0.00 26 1008.5
20260504021543 75 339 2.0 7.0 0.00 0.00 0.00 25 1008.6
20260504020043 75 92 0.0 5.0 0.00 0.00 0.00 24 1008.7
20260504014542 76 338 2.0 8.0 0.00 0.00 0.00 23 1008.8
20260504013042 77 307 2.0 5.0 0.00 0.00 0.00 23 1008.8
20260504011540 78 306 1.0 11.0 0.00 0.00 0.00 24 1008.9
20260504010035 78 159 2.0 8.0 0.00 0.00 0.00 24 1009.0
20260504004534 79 51 2.0 9.0 0.00 0.00 0.00 24 1009.1
20260504003033 80 234 2.0 8.0 0.00 0.00 0.00 21 1009.2
20260504001536 80 244 2.0 6.0 0.00 0.00 0.00 22 1009.3
20260504000029 80 257 2.0 7.0 0.00 0.00 0.00 23 1009.5
20260503234534 80 30 1.0 8.0 0.00 0.00 0.00 22 1009.7
20260503233035 80 125 1.0 6.0 0.00 0.00 0.00 25 1009.8
20260503231523 80 333 3.0 6.0 0.00 0.00 0.00 24 1010.1
20260503230022 80 78 1.0 8.0 0.00 0.00 0.00 26 1010.3
20260503224521 81 28 2.0 11.0 0.00 0.00 0.00 23 1010.5
20260503223018 80 84 2.0 9.0 0.00 0.00 0.00 24 1010.7
20260503221526 81 30 3.0 9.0 0.00 0.00 0.00 25 1010.8
20260503220014 81 107 2.0 7.0 0.00 0.00 0.00 27 1011.0
20260503214513 80 246 1.0 10.0 0.00 0.00 0.00 23 1011.0
20260503213009 80 28 2.0 10.0 0.00 0.00 0.00 25 1011.3
20260503211508 80 80 4.0 10.0 0.00 0.00 0.00 24 1011.3
20260503210006 80 84 2.0 10.0 0.00 0.00 0.00 24 1011.4
20260503204504 79 69 2.0 8.0 0.00 0.00 0.00 25 1011.5
20260503203059 78 29 2.0 13.0 0.00 0.00 0.00 27 1011.6
20260503201555 78 84 2.0 10.0 0.00 0.00 0.00 30 1011.9
20260503200056 77 50 2.0 8.0 0.00 0.00 0.00 31 1012.1
20260503194558 77 80 3.0 9.0 0.00 0.00 0.00 32 1012.3
20260503193048 76 229 2.0 8.0 0.00 0.00 0.00 31 1012.5
20260503191547 77 65 3.0 10.0 0.00 0.00 0.00 31 1012.5
20260503190041 76 125 2.0 9.0 0.00 0.00 0.00 36 1012.6
20260503184537 74 103 3.0 9.0 0.00 0.00 0.00 35 1012.7
20260503183035 73 78 3.0 9.0 0.00 0.00 0.00 37 1012.7
20260503181533 73 113 3.0 11.0 0.00 0.00 0.00 36 1012.8
20260503180032 72 65 3.0 8.0 0.00 0.00 0.00 36 1012.8
20260503174528 71 96 3.0 13.0 0.00 0.00 0.00 39 1013.0
20260503173028 71 28 3.0 12.0 0.00 0.00 0.00 41 1013.2
20260503171524 70 123 3.0 11.0 0.00 0.00 0.00 40 1013.3
20260503081520 56 139 0.0 0.0 0.00 0.00 0.00 54 1013.6
20260503071506 60 138 0.0 1.0 0.00 0.00 0.00 47 1013.5